User: anonymous   Login
Location: Shades State Park
(39.9310°N, 87.0690°W)
Time: 05:11:37
(UTC-04:00)
Language:

H-2A R/B - Orbit

View from above orbital plane
View from above orbital plane
View from above satellite
View from above satellite

Ground track
Ground track

The orbit data is extracted from the following two-line orbital elements,

1 27601U 02056E   17230.81836128  .00000009  00000-0  18234-4 0  9990
2 27601  98.3718 296.4363 0073388 109.5596   2.6888 14.31792444766775
Epoch (UTC): 18 August 2017 19:38:26
Eccentricity: 0.0073388
inclination: 98.3718°
perigee height: 733 km
apogee height: 838 km
right ascension of ascending node: 296.4363°
argument of perigee: 109.5596°
revolutions per day: 14.31792444
mean anomaly at epoch: 2.6888°
orbit number at epoch: 76677

The dashed part of the orbit path shows where the satellite is in the earth's shadow,  

DLR